Regional Weather Roundup
Issued by NWS

Home | Current Version | Previous Version | Text Only | Print | Product List | Glossary On
Versions: 1 2 3 4 5 6 7 8 9 10 11 12 13 14 15 16 17 18 19 20 21 22 23 24 25 26 27 28 29 30 31 32 33 34 35 36 37 38 39 40 41 42 43 44 45 46 47 48 49 50
000
ASUS43 KDMX 220007
RWRIA

WEATHER ROUNDUP FOR IOWA
NATIONAL WEATHER SERVICE DES MOINES IA
700 PM CDT MON JUL 21 2014

NOTE: "FAIR" INDICATES FEW OR NO CLOUDS BELOW 12,000 FEET WITH NO
SIGNIFICANT WEATHER AND/OR OBSTRUCTIONS TO VISIBILITY.

* - THESE STATIONS ARE NOT NWS STATIONS...THUS NOT UNDER NWS
QUALITY CONTROL.  THEY ALSO DO NOT REPORT WEATHER SUCH
AS PRECIPITATION OR FOG.

IAZ001>003-012>014-020>022-031>034-043>046-220100-
   NORTHWEST IOWA

CITY           SKY/WX    TMP DP  RH WIND       PRES   REMARKS
CARROLL *      SUNNY     86  79  79 S12       29.87S HX  99
CHEROKEE *     PTSUNNY   85  78  80 S12       29.82F HX  97
DENISON *      SUNNY     90  81  74 S9G15     29.83F HX 108
LE MARS *      SUNNY     90  79  70 S13G18    29.80F HX 105
ORANGE CITY *  SUNNY     88  77  70 SE7       29.82F HX 100
SHELDON *      SUNNY     84  79  84 SE6       29.82F HX  96
SIOUX CITY     MOSUNNY   92  78  63 S8        29.80R HX 107
6HR MIN TEMP:  85; 6HR MAX TEMP:  93;

SPENCER        CLOUDY    85  77  77 SE12      29.84F HX  95
6HR MIN TEMP:  82; 6HR MAX TEMP:  86;

STORM LAKE *   SUNNY     84  81  89 S9        29.86F HX  98
$$

IAZ055>058-069>071-079>083-090>094-220100-
   SOUTHWEST IOWA

CITY           SKY/WX    TMP DP  RH WIND       PRES   REMARKS
ATLANTIC *     SUNNY     88  79  74 S13       29.87S HX 102
AUDUBON *      SUNNY     90  82  79 S10       29.89S HX 111
CLARINDA *     SUNNY     88  77  70 S9G17     29.90S HX 100
COUNCIL BLFS * SUNNY     88  82  84 S10       29.85S HX 108
CRESTON *      SUNNY     88  77  70 S16G24    29.92R HX 100
HARLAN  *      SUNNY     88  81  79 S10G18    29.90S HX 105
LAMONI         SUNNY     87  76  69 S13G23    29.92S HX  97
6HR MIN TEMP:  85; 6HR MAX TEMP:  90;

RED OAK *      SUNNY     88  79  74 S10       29.87S HX 102
SHENANDOAH *   SUNNY     90  81  74 S9G15     29.87S HX 108
$$

IAZ047>049-059>061-072>074-084-220100-
   CENTRAL IOWA

CITY           SKY/WX    TMP DP  RH WIND       PRES   REMARKS
AMES           CLOUDY    87  77  72 S10       29.89S HX  99
6HR MIN TEMP:  84; 6HR MAX TEMP:  90;

ANKENY *       PTSUNNY   88  77  70 S12G18    29.89R HX 100
CHARITON *     SUNNY     88  77  70 S15G21    29.92S HX 100
DES MOINES     MOSUNNY   90  76  63 S12       29.89R HX 101
6HR MIN TEMP:  88; 6HR MAX TEMP:  93;

GRINNELL*      MOSUNNY   86  75  70 S10       29.93R HX  95
KNOXVILLE *    SUNNY     88  75  66 S14       29.90R HX  97
MARSHALLTOWN   CLOUDY    86  76  71 S14       29.91R HX  96
6HR MIN TEMP:  83; 6HR MAX TEMP:  89;

PELLA *        SUNNY     88  76  67 S15       29.92S HX  98
PERRY *          N/A     90  77  66 S9        29.88F HX 102
$$

IAZ004>006-015-016-023>025-035-036-220100-
   NORTH CENTRAL IOWA

CITY           SKY/WX    TMP DP  RH WIND       PRES   REMARKS
ALGONA *       PTSUNNY   84  79  84 S10       29.88F HX  96
CLARION *      CLOUDY    86  77  74 S9        29.89S HX  97
ESTHERVILLE    CLOUDY    83  76  79 S12       29.86F HX  91
6HR MIN TEMP:  81; 6HR MAX TEMP:  85;

FORT DODGE *   MOSUNNY   86  77  74 S7        29.89S HX  97
MASON CITY     MOSUNNY   84  76  76 S13       29.92S HX  93
6HR MIN TEMP:  83; 6HR MAX TEMP:  88;

FOREST CITY *  PTSUNNY   84  75  74 SE9       29.89S HX  92
IOWA FALLS *   CLOUDY    84  75  74 S10       29.92S HX  92
$$

IAZ007>011-017>019-026>030-037>042-050>054-066-220100-
   NORTHEAST IOWA

CITY           SKY/WX    TMP DP  RH WIND       PRES   REMARKS
CEDAR RAPIDS   SUNNY     82  72  71 S9        29.95S HX  87
6HR MIN TEMP:  82; 6HR MAX TEMP:  86;

CHARLES CITY * CLOUDY    84  75  74 S12       29.94R HX  92
DECORAH *      SUNNY     82  73  74 S8G16     29.94R HX  88
DUBUQUE        SUNNY     80  69  69 S12       29.99F HX  83
6HR MIN TEMP:  80; 6HR MAX TEMP:  83;

MONTICELLO *   SUNNY     82  72  69 S13G21    29.97S HX  87
OELWEIN *      SUNNY     84  73  70 S17G25    29.95S HX  91
WATERLOO       MOSUNNY   85  72  65 S20G25    29.92R HX  91
6HR MIN TEMP:  84; 6HR MAX TEMP:  89;

$$

IAZ064-065-067-068-078-220100-
   EAST CENTRAL IOWA

CITY           SKY/WX    TMP DP  RH WIND       PRES   REMARKS
DAVENPORT      SUNNY     82  68  62 S15G25    30.00F HX  85
6HR MIN TEMP:  82; 6HR MAX TEMP:  85;

IOWA CITY      SUNNY     83  72  69 S10       29.97S HX  88
6HR MIN TEMP:  83; 6HR MAX TEMP:  86; 6HR PCP: TRACE;

MT. PLEASANT * SUNNY     85  68  56 S9        29.98S HX  87
MUSCATINE *    SUNNY     84  70  61 S9G20     29.98S HX  88
QUAD CITIES    SUNNY     83  69  62 S7        29.99F HX  86
6HR MIN TEMP:  83; 6HR MAX TEMP:  86;

$$

IAZ062-063-075>077-085>089-095>099-220100-
   SOUTHEAST IOWA

CITY           SKY/WX    TMP DP  RH WIND       PRES   REMARKS
BURLINGTON     SUNNY     83  70  64 S10       30.00S HX  87
6HR MIN TEMP:  83; 6HR MAX TEMP:  86;

FAIRFIELD *    SUNNY     86  70  58 S13G20    29.96F HX  90
FORT MADISON * SUNNY     84  70  61 S8        30.01S HX  88
KEOKUK *       SUNNY     84  68  58 S9G15     29.99S HX  87
OSKALOOSA *      N/A     85  75  71 S15       29.94S HX  94
CENTERVILLE *  SUNNY     86  77  74 S9        29.97S HX  97
OTTUMWA        SUNNY     85  74  69 S14       29.94R HX  92
6HR MIN TEMP:  84; 6HR MAX TEMP:  87;

WASHINGTON *   SUNNY     84  72  65 S12       29.97S HX  89
$$

ABBREVIATIONS USED IN REMARKS
   TC - TEMPERATURES IN CELSIUS
  WCI - WIND CHILL INDEX
   HX - HEAT INDEX
  VSB - VISIBILITY
$$



USA.gov is the U.S. government's official web portal to all federal, state and local government web resources and services.